SL-16 DEB, 39872

Orbit data source: Space-Track

SL-16 DEB, 39872 is space debris in LEO originally from a launch on Fri, 26 Mar 1993 UTC launched from the Tyuratam Missile And Space Complex (TTMTR). Debris objects in space refer to the collection of defunct objects orbiting the Earth. Examples of debris include non-operational satellites, rocket bodies, and fragments generated from explosions, collisions, or faulty payload assembly.

Loading next visibility...
Identifier
39872, 1993-016AW
Orbit
LEO
Country
Flag of CISCIS
Related business
Manufacturer
Unknown
Mission
Spacecraft
Bus & Motor
Unknown
Mass
Unknown
Launch date (UTC)
1993-03-26 (33 years ago)
Launch vehicle
Unknown
Launch site
Tyuratam Missile And Space Complex (TTMTR)
Object type
Payload
Rocket body
Debris
Shape & HBR
Unknown shape, 0.1 m
Radar Cross Section
Small (<0.1 m²)

Expand to show TLE details & history
Last TLE update: 3 days ago

TLE from 3 days ago
0 SL-16 DEB
1 39872U 93016AW  25287.02672737  .00001717  00000-0  11037-2 0  9996
2 39872  70.9838 134.3882 0132184  82.5359  66.7534 14.00332306578379
Epoch: 2025-10-14T00:38Z
TLE epoch observation values (Epoch: 2025-10-14T00:38:29.244Z)
Latitude
27.61974°
Longitude
-88.38805°
Altitude
858.643 km
Speed
7.445 km/s
True Right ascension
20h 16m 13s
True Declination
27° 28' 50"
Sunlit
Object was in daylight at epoch
Visualization orbit readout
Latitude
Unknown
Longitude
Unknown
Altitude
Unknown
Speed
Unknown
Apparent Right ascension
Unknown
Apparent Declination
Unknown
Sunlit
N/A
Visualization observer readout
Local Sidereal Time
08:58:14
Azimuth
Unknown
Elevation
Unknown
Doppler factor
Unknown
Orbital elements
Apogee altitude
986.666 km
Perigee altitude
794.504 km
Semi-major axis
7,268.722 km
Eccentricity
0.01322
Inclination
70.9838°
RAAN
134.3882°
Arg. of periapsis
82.5359°
True anomaly
68.15414°
Mean anomaly
66.7534°
Eccentric anomaly
67.45287°
Mean motion
3.50232 °/min
Orbital period
102.79 mins
BSTAR
0.0011037
Loading maneuver chart data...
Computing Atmospheric mass density...
Loading historical data...
Loading historical data...
Loading historical data...
Loading historical data...
Loading historical data...
Loading historical data...
Loading historical data...

Documentation

Showing up to 5 results
|